GW0828 Weather Reports


Display with metric or nautical units.
time (UTC)temp
F
wind
direction
speed
MPH
gust
MPH
rain 1hr
in
rain 24hr
in
rain mn
in
humidity
%
barometer
mb
20260508192039 69 0 3.0 14.0 0.00 0.06 0.05 35 1014.6
20260508191550 68 347 2.0 6.0 0.00 0.06 0.05 37 1014.8
20260508191039 68 0 1.0 8.0 0.00 0.06 0.05 32 1014.9
20260508190538 68 12 3.0 8.0 0.00 0.06 0.05 38 1014.9
20260508190052 68 21 2.0 7.0 0.00 0.06 0.05 40 1015.0
20260508185538 68 270 2.0 9.0 0.00 0.06 0.05 39 1014.9
20260508185038 68 335 2.0 9.0 0.00 0.06 0.05 36 1014.9
20260508184604 66 342 1.0 7.0 0.00 0.06 0.05 39 1015.0
20260508184037 67 342 1.0 8.0 0.00 0.06 0.05 39 1015.1
20260508183537 67 335 1.0 8.0 0.00 0.06 0.05 42 1015.2
20260508183113 66 267 2.0 8.0 0.00 0.06 0.05 44 1015.3
20260508182538 65 108 3.0 6.0 0.00 0.06 0.05 42 1015.4
20260508182037 66 0 1.0 7.0 0.00 0.06 0.05 41 1015.5
20260508181604 66 248 1.0 7.0 0.00 0.06 0.05 45 1015.6
20260508181037 66 198 1.0 8.0 0.00 0.06 0.05 47 1015.7
20260508180537 65 250 3.0 8.0 0.00 0.06 0.05 44 1015.9
20260508180053 65 204 3.0 7.0 0.00 0.06 0.05 44 1015.9
20260508175537 65 204 3.0 7.0 0.00 0.06 0.05 48 1016.0
20260508175038 65 121 1.0 7.0 0.00 0.06 0.05 49 1016.1
20260508174551 65 208 4.0 7.0 0.00 0.06 0.05 50 1016.1
20260508174038 64 181 4.0 7.0 0.00 0.06 0.05 46 1016.3
20260508173538 64 0 2.0 8.0 0.00 0.06 0.05 53 1016.3
20260508173046 62 0 1.0 8.0 0.00 0.06 0.05 50 1016.4
20260508172540 63 246 2.0 6.0 0.00 0.06 0.05 49 1016.4
20260508172040 63 218 3.0 7.0 0.00 0.06 0.05 49 1016.5
20260508171547 63 0 2.0 7.0 0.00 0.06 0.05 52 1016.6
20260508171041 63 198 3.0 6.0 0.00 0.06 0.05 51 1016.7
20260508170537 63 122 1.0 7.0 0.00 0.06 0.05 50 1016.6
20260508170056 62 148 4.0 8.0 0.00 0.06 0.05 53 1016.7
20260508165537 61 193 4.0 9.0 0.00 0.06 0.05 52 1016.8
20260508165037 61 252 5.0 9.0 0.00 0.06 0.05 54 1016.8
20260508164551 61 185 5.0 9.0 0.00 0.06 0.05 54 1016.8
20260508164038 62 183 2.0 6.0 0.00 0.06 0.05 55 1016.8
20260508163537 61 279 2.0 7.0 0.00 0.06 0.05 55 1016.8
20260508163049 60 204 1.0 7.0 0.00 0.06 0.05 55 1016.8
20260508162541 60 189 3.0 7.0 0.00 0.06 0.05 55 1017.0
20260508162037 59 211 2.0 9.0 0.00 0.06 0.05 57 1017.0
20260508161551 59 202 5.0 9.0 0.00 0.06 0.05 56 1017.0
20260508161039 59 237 2.0 8.0 0.00 0.06 0.05 57 1017.1
20260508160538 58 271 3.0 8.0 0.00 0.06 0.05 58 1017.0
20260508160049 58 264 2.0 8.0 0.00 0.06 0.05 59 1017.0
20260508155537 59 240 0.0 3.0 0.00 0.06 0.05 57 1017.0
20260508155038 58 0 0.0 5.0 0.00 0.06 0.05 59 1017.1
20260508154608 57 262 1.0 7.0 0.00 0.06 0.05 61 1017.1
20260508154038 57 227 2.0 7.0 0.00 0.06 0.05 62 1017.1
20260508153538 57 0 1.0 6.0 0.00 0.06 0.05 60 1017.1
20260508153048 57 150 1.0 6.0 0.00 0.06 0.05 59 1017.1
20260508152537 57 269 0.0 6.0 0.00 0.06 0.05 64 1017.1
20260508152038 57 0 0.0 6.0 0.00 0.06 0.05 67 1017.3
20260508151548 56 270 2.0 6.0 0.00 0.06 0.05 63 1017.2
20260508151038 55 12 1.0 5.0 0.00 0.06 0.05 67 1017.3
20260508150538 54 0 2.0 5.0 0.00 0.06 0.05 69 1017.2
20260508150050 53 2 2.0 5.0 0.00 0.06 0.05 71 1017.2
20260508145538 53 2 2.0 4.0 0.00 0.06 0.05 73 1017.1
20260508145040 53 360 1.0 4.0 0.00 0.06 0.05 74 1017.1
20260508144600 52 2 1.0 4.0 0.00 0.06 0.05 74 1017.1
20260508144038 52 2 2.0 4.0 0.00 0.06 0.05 74 1017.3
20260508143540 51 0 0.0 2.0 0.00 0.06 0.05 77 1017.3
20260508143053 51 0 0.0 2.0 0.00 0.06 0.05 77 1017.3
20260508142537 50 0 1.0 2.0 0.00 0.06 0.05 77 1017.3
20260508142038 50 0 0.0 2.0 0.00 0.06 0.05 78 1017.3
20260508141549 50 358 0.0 4.0 0.00 0.06 0.05 79 1017.3
20260508141039 50 79 0.0 4.0 0.00 0.06 0.05 80 1017.3
20260508140534 49 73 1.0 4.0 0.00 0.06 0.05 80 1017.1
20260508140046 49 45 0.0 1.0 0.00 0.06 0.05 82 1017.1
20260508135538 49 0 0.0 5.0 0.00 0.06 0.05 84 1017.0
20260508135037 48 0 0.0 5.0 0.00 0.06 0.05 85 1016.9
20260508134558 48 358 2.0 5.0 0.00 0.06 0.05 86 1017.0
20260508134037 47 358 0.0 2.0 0.00 0.06 0.05 88 1016.8
20260508133538 47 0 0.0 0.0 0.00 0.06 0.05 88 1016.6
20260508133057 47 0 0.0 2.0 0.00 0.06 0.05 88 1016.6
20260508132538 47 0 0.0 2.0 0.00 0.06 0.05 88 1016.6
20260508132037 46 0 0.0 4.0 0.00 0.06 0.05 88 1016.3
20260508131550 46 2 0.0 4.0 0.00 0.06 0.05 87 1016.3
20260508131037 46 2 1.0 3.0 0.00 0.06 0.05 87 1016.4
20260508130538 46 3 0.0 3.0 0.00 0.06 0.05 87 1016.3
20260508130047 46 0 0.0 1.0 0.01 0.06 0.05 87 1016.4
20260508125540 46 0 0.0 2.0 0.02 0.06 0.05 87 1016.5
20260508125037 46 0 0.0 2.0 0.02 0.06 0.05 86 1016.5
20260508124548 46 0 0.0 1.0 0.03 0.06 0.05 86 1016.4
20260508124037 46 0 0.0 3.0 0.03 0.06 0.05 86 1016.4
20260508123538 46 0 0.0 3.0 0.03 0.06 0.05 86 1016.4
20260508123054 46 4 1.0 5.0 0.04 0.06 0.05 86 1016.4
20260508122537 46 4 1.0 5.0 0.04 0.06 0.05 86 1016.5
20260508122037 46 2 0.0 5.0 0.04 0.06 0.05 85 1016.3
20260508121547 46 0 2.0 7.0 0.04 0.06 0.05 85 1016.6
20260508121037 46 4 3.0 10.0 0.04 0.06 0.05 85 1016.7
20260508120537 46 4 3.0 13.0 0.04 0.06 0.05 84 1016.7
20260508120046 46 6 5.0 18.0 0.03 0.05 0.04 84 1017.1
20260508115537 47 5 7.0 18.0 0.02 0.04 0.03 83 1017.1
20260508115037 47 6 7.0 20.0 0.02 0.04 0.03 82 1017.3
20260508114545 47 6 6.0 20.0 0.01 0.03 0.02 82 1017.2
20260508114037 47 6 9.0 20.0 0.01 0.03 0.02 81 1017.3
20260508113539 47 8 7.0 18.0 0.00 0.02 0.01 82 1017.3
20260508113048 47 7 6.0 15.0 0.00 0.02 0.01 83 1017.4
20260508112536 46 6 1.0 5.0 0.00 0.02 0.01 82 1017.2
20260508112037 46 0 1.0 6.0 0.00 0.02 0.01 82 1017.1
20260508111555 46 0 1.0 7.0 0.00 0.02 0.01 81 1016.8
20260508111040 46 4 3.0 7.0 0.00 0.02 0.01 81 1016.6
20260508110537 47 3 0.0 4.0 0.00 0.02 0.01 80 1016.3
20260508110050 47 0 1.0 4.0 0.00 0.02 0.01 80 1015.9
20260508105537 47 352 1.0 4.0 0.00 0.02 0.01 79 1016.0
20260508105034 47 6 1.0 4.0 0.00 0.02 0.01 79 1015.9
20260508104545 47 6 1.0 6.0 0.00 0.02 0.01 79 1015.9
20260508104037 48 7 1.0 7.0 0.00 0.02 0.01 79 1015.9
20260508103538 48 356 2.0 7.0 0.00 0.02 0.01 79 1015.9
20260508103053 48 356 2.0 8.0 0.00 0.02 0.01 78 1015.9
20260508102538 48 352 2.0 10.0 0.00 0.02 0.01 78 1015.8
20260508102040 48 356 5.0 14.0 0.00 0.02 0.01 78 1015.9
20260508101545 48 356 4.0 14.0 0.00 0.02 0.01 78 1015.9
20260508101038 48 356 6.0 15.0 0.00 0.02 0.01 78 1015.9
20260508100537 49 6 8.0 15.0 0.00 0.02 0.01 78 1015.8
20260508100106 49 356 9.0 16.0 0.00 0.02 0.01 78 1015.9
20260508095537 49 356 7.0 16.0 0.00 0.02 0.01 79 1015.8
20260508095036 48 347 6.0 16.0 0.00 0.02 0.01 82 1015.9
20260508094601 48 356 1.0 5.0 0.00 0.02 0.01 84 1015.9
20260508094037 48 7 2.0 5.0 0.00 0.02 0.01 85 1015.9
20260508093538 48 352 0.0 4.0 0.00 0.02 0.01 85 1015.9
20260508093045 48 356 2.0 4.0 0.00 0.02 0.01 86 1015.9
20260508092537 48 356 1.0 3.0 0.00 0.02 0.01 85 1016.0
20260508092041 48 352 0.0 2.0 0.00 0.02 0.01 85 1016.1
20260508091603 48 0 0.0 3.0 0.00 0.02 0.01 85 1016.0
20260508091037 48 0 0.0 3.0 0.00 0.02 0.01 85 1015.9
20260508090537 48 0 0.0 4.0 0.00 0.02 0.01 85 1015.8
20260508090109 48 0 1.0 4.0 0.00 0.02 0.01 85 1015.8
20260508085537 48 356 1.0 3.0 0.00 0.02 0.01 84 1015.8
20260508085037 48 0 0.0 3.0 0.00 0.02 0.01 84 1015.6
20260508084547 48 0 0.0 4.0 0.00 0.02 0.01 84 1015.4
20260508084038 48 0 0.0 4.0 0.00 0.02 0.01 84 1015.2
20260508083538 48 2 1.0 3.0 0.01 0.02 0.01 83 1015.1
20260508083050 48 2 1.0 3.0 0.01 0.02 0.01 83 1015.1
20260508082539 48 0 0.0 2.0 0.01 0.02 0.01 83 1015.1
20260508082037 48 2 0.0 4.0 0.01 0.02 0.01 82 1015.0
20260508081603 48 0 1.0 5.0 0.01 0.02 0.01 82 1015.1
20260508081038 49 2 2.0 5.0 0.01 0.02 0.01 82 1014.9
20260508080537 49 2 3.0 5.0 0.01 0.02 0.01 81 1015.1
20260508080056 49 0 1.0 5.0 0.01 0.02 0.01 80 1014.9
20260508075540 49 358 3.0 7.0 0.01 0.02 0.01 80 1014.7
20260508075033 49 358 3.0 7.0 0.01 0.02 0.01 80 1015.2
20260508074550 49 357 1.0 3.0 0.01 0.02 0.01 80 1015.5
20260508074041 49 357 1.0 3.0 0.01 0.02 0.01 80 1015.8
20260508073534 49 0 0.0 4.0 0.00 0.01 0.00 80 1016.0
20260508073105 49 347 1.0 6.0 0.00 0.01 0.00 79 1016.2
20260508072536 49 358 1.0 7.0 0.00 0.01 0.00 79 1016.4
20260508072037 49 4 2.0 7.0 0.00 0.01 0.00 78 1016.6
20260508071548 50 293 1.0 4.0 0.00 0.01 0.00 78 1016.6
20260508071037 50 239 2.0 4.0 0.00 0.01 0.00 78 1016.4
20260508070537 50 237 0.0 2.0 0.00 0.01 0.00 77 1016.0
20260508070052 50 237 0.0 3.0 0.00 0.01 0.00 76 1015.9
20260508065538 50 0 0.0 4.0 0.00 0.01 0.00 76 1016.2
20260508065034 50 281 1.0 5.0 0.00 0.01 0.00 75 1016.3
20260508064554 50 0 1.0 5.0 0.00 0.01 0.00 75 1016.4
20260508064038 51 258 1.0 6.0 0.00 0.01 0.00 75 1016.4
20260508063537 51 337 1.0 6.0 0.00 0.01 0.00 74 1016.3
20260508063054 51 270 1.0 6.0 0.00 0.01 0.00 73 1016.2
20260508062537 51 250 0.0 7.0 0.00 0.01 0.00 74 1015.9
20260508062037 51 352 1.0 9.0 0.00 0.01 0.00 74 1015.8
20260508061605 51 330 2.0 9.0 0.00 0.01 0.00 74 1015.8
20260508061038 51 15 5.0 9.0 0.00 0.01 0.00 74 1015.8
20260508060538 51 356 2.0 5.0 0.00 0.01 0.00 73 1015.6
20260508055534 52 0 0.0 4.0 0.00 0.01 0.01 72 1015.8
20260508055037 52 0 0.0 5.0 0.00 0.01 0.01 71 1015.8
20260508054546 52 21 0.0 7.0 0.00 0.01 0.01 71 1015.7
20260508054036 52 0 2.0 7.0 0.00 0.01 0.01 71 1015.9
20260508053533 52 10 3.0 9.0 0.00 0.01 0.01 70 1015.9
20260508053046 52 28 2.0 9.0 0.00 0.01 0.01 70 1015.9
20260508052537 53 24 4.0 9.0 0.00 0.01 0.01 69 1015.9
20260508052035 53 23 5.0 9.0 0.00 0.01 0.01 68 1015.8
20260508051619 53 42 4.0 11.0 0.00 0.01 0.01 69 1015.7
20260508051037 53 43 5.0 11.0 0.00 0.01 0.01 67 1015.6
20260508050538 54 27 4.0 9.0 0.00 0.01 0.01 67 1015.4
20260508050046 54 44 4.0 8.0 0.00 0.01 0.01 67 1015.4
20260508045537 54 36 2.0 9.0 0.00 0.01 0.01 67 1015.4
20260508045037 54 40 3.0 9.0 0.00 0.01 0.01 66 1015.2
20260508044550 54 46 2.0 8.0 0.00 0.01 0.01 65 1015.1
20260508044036 54 65 3.0 8.0 0.00 0.01 0.01 66 1015.1
20260508043538 54 29 1.0 7.0 0.00 0.01 0.01 66 1015.1
20260508043045 54 62 2.0 11.0 0.00 0.01 0.01 65 1014.9
20260508042538 54 18 4.0 11.0 0.00 0.01 0.01 68 1014.8
20260508042037 54 67 6.0 11.0 0.00 0.01 0.01 67 1014.6
20260508041550 55 77 3.0 7.0 0.00 0.01 0.01 66 1014.3
20260508041037 55 0 0.0 6.0 0.00 0.01 0.01 65 1013.9
20260508040538 55 9 1.0 7.0 0.01 0.01 0.01 64 1014.2
20260508040053 55 335 3.0 9.0 0.01 0.01 0.01 63 1014.5
20260508035537 56 261 2.0 9.0 0.01 0.01 0.01 62 1014.6
20260508035037 56 279 4.0 10.0 0.01 0.01 0.01 61 1014.4
20260508034551 55 309 4.0 13.0 0.01 0.01 0.01 61 1014.2
20260508034034 55 292 4.0 13.0 0.01 0.01 0.01 63 1014.0
20260508033534 55 316 5.0 13.0 0.01 0.01 0.01 63 1013.9
20260508033056 55 283 5.0 13.0 0.01 0.01 0.01 64 1013.8
20260508032537 55 352 5.0 18.0 0.01 0.01 0.01 64 1013.7
20260508032035 55 302 7.0 19.0 0.01 0.01 0.01 65 1013.6
20260508031557 54 318 8.0 22.0 0.01 0.01 0.01 66 1013.7
20260508031034 54 347 9.0 22.0 0.01 0.01 0.01 69 1013.6
20260508030534 53 186 9.0 22.0 0.00 0.00 0.00 72 1013.5
20260508030100 53 298 7.0 17.0 0.00 0.00 0.00 70 1013.4
20260508025533 54 311 7.0 17.0 0.00 0.00 0.00 70 1013.4
20260508025038 54 36 9.0 16.0 0.00 0.00 0.00 68 1013.3
20260508024617 54 63 6.0 12.0 0.00 0.00 0.00 67 1013.3
20260508024033 54 325 4.0 14.0 0.00 0.00 0.00 66 1013.5
20260508023537 54 20 6.0 14.0 0.00 0.00 0.00 66 1013.5
20260508023048 54 296 4.0 15.0 0.00 0.00 0.00 66 1013.6
20260508022537 54 347 5.0 15.0 0.00 0.00 0.00 66 1013.5
20260508022035 54 2 7.0 16.0 0.00 0.00 0.00 68 1013.5
20260508021555 54 319 8.0 16.0 0.00 0.00 0.00 68 1013.6
20260508021036 54 24 8.0 17.0 0.00 0.00 0.00 68 1013.6
20260508020534 54 347 7.0 17.0 0.00 0.00 0.00 66 1013.6
20260508020054 55 339 8.0 18.0 0.00 0.00 0.00 66 1013.4
20260508015534 55 54 9.0 24.0 0.00 0.00 0.00 64 1013.4
20260508015037 58 347 10.0 24.0 0.00 0.00 0.00 60 1013.6
20260508014552 60 338 11.0 22.0 0.00 0.00 0.00 51 1013.7
20260508014039 60 309 3.0 9.0 0.00 0.00 0.00 47 1013.4
20260508013537 60 308 3.0 9.0 0.00 0.00 0.00 46 1013.2
20260508013052 61 298 3.0 8.0 0.00 0.00 0.00 45 1012.9
20260508012537 61 286 2.0 10.0 0.00 0.00 0.00 45 1012.9
20260508012037 61 324 3.0 14.0 0.00 0.00 0.00 45 1012.7
20260508011548 61 323 3.0 14.0 0.00 0.00 0.00 44 1012.8
20260508011038 61 318 4.0 10.0 0.00 0.00 0.00 44 1012.7
20260508010535 61 307 3.0 10.0 0.00 0.00 0.00 44 1012.7
20260508010053 61 305 3.0 10.0 0.00 0.00 0.00 43 1012.6
20260508005535 62 333 2.0 13.0 0.00 0.00 0.00 44 1012.6
20260508005035 61 347 3.0 13.0 0.00 0.00 0.00 44 1012.5
20260508004552 61 316 4.0 9.0 0.00 0.00 0.00 43 1012.6
20260508004035 62 314 1.0 9.0 0.00 0.00 0.00 42 1012.5
20260508003536 62 289 3.0 12.0 0.00 0.00 0.00 41 1012.4
20260508003044 62 279 2.0 14.0 0.00 0.00 0.00 40 1012.3
20260508002536 62 270 8.0 18.0 0.00 0.00 0.00 39 1012.3
20260508002037 62 297 9.0 18.0 0.00 0.00 0.00 39 1012.6
20260508001548 62 242 4.0 12.0 0.00 0.00 0.00 40 1012.6
20260508001037 62 293 4.0 14.0 0.00 0.00 0.00 40 1012.5
20260508000538 63 264 6.0 15.0 0.00 0.00 0.00 39 1012.5
20260508000053 63 42 6.0 15.0 0.00 0.00 0.00 39 1012.5
20260507235537 63 308 5.0 15.0 0.00 0.00 0.00 37 1012.6
20260507235037 64 267 7.0 19.0 0.00 0.00 0.00 36 1012.5
20260507234545 64 27 7.0 23.0 0.00 0.00 0.00 34 1012.6
20260507234034 64 260 10.0 23.0 0.00 0.00 0.00 34 1012.6
20260507233537 65 276 10.0 20.0 0.00 0.00 0.00 35 1012.4
20260507233046 65 287 5.0 14.0 0.00 0.00 0.00 36 1012.4
20260507232534 65 320 6.0 14.0 0.00 0.00 0.00 37 1012.2
20260507232035 65 23 5.0 14.0 0.00 0.00 0.00 37 1012.2
20260507231555 65 333 3.0 12.0 0.00 0.00 0.00 36 1012.1
20260507231033 65 352 5.0 12.0 0.00 0.00 0.00 35 1012.0
20260507230541 66 325 2.0 13.0 0.00 0.00 0.00 36 1012.0
20260507230104 66 352 5.0 13.0 0.00 0.00 0.00 34 1012.0
20260507225537 67 352 6.0 13.0 0.00 0.00 0.00 35 1011.8
20260507225037 67 339 4.0 13.0 0.00 0.00 0.00 30 1011.9
20260507224553 67 312 3.0 13.0 0.00 0.00 0.00 28 1011.8
20260507224041 68 293 5.0 14.0 0.00 0.00 0.00 28 1011.8
20260507223537 68 261 5.0 24.0 0.00 0.00 0.00 27 1011.9
20260507223046 69 269 5.0 24.0 0.00 0.00 0.00 26 1011.8
20260507222534 70 302 12.0 24.0 0.00 0.00 0.00 25 1011.8
20260507222037 70 267 10.0 19.0 0.00 0.00 0.00 26 1011.9
20260507221553 70 282 8.0 20.0 0.00 0.00 0.00 27 1011.8
20260507221036 70 278 8.0 21.0 0.00 0.00 0.00 26 1011.9
20260507220538 71 271 10.0 21.0 0.00 0.00 0.00 26 1011.8
20260507220053 70 250 10.0 21.0 0.00 0.00 0.00 26 1011.7
20260507215537 71 267 9.0 21.0 0.00 0.00 0.00 26 1011.9
20260507215036 71 292 9.0 25.0 0.00 0.00 0.00 25 1011.8
20260507214552 70 254 10.0 25.0 0.00 0.00 0.00 27 1011.9
20260507214033 71 296 8.0 21.0 0.00 0.00 0.00 25 1012.1
20260507213536 70 258 5.0 24.0 0.00 0.00 0.00 26 1012.1
20260507213052 70 250 8.0 24.0 0.00 0.00 0.00 26 1012.3
20260507212534 70 278 9.0 18.0 0.00 0.00 0.00 26 1012.5
20260507212037 70 258 8.0 21.0 0.00 0.00 0.00 27 1012.6
20260507211546 70 252 8.0 21.0 0.00 0.00 0.00 26 1012.6
20260507211034 70 252 8.0 24.0 0.00 0.00 0.00 27 1012.6
20260507210537 69 244 8.0 24.0 0.00 0.00 0.00 26 1012.8
20260507205534 70 241 8.0 17.0 0.00 0.00 0.00 26 1012.9
20260507205034 70 289 4.0 15.0 0.00 0.00 0.00 27 1013.0
20260507204546 69 279 6.0 21.0 0.00 0.00 0.00 28 1013.1
20260507204037 69 330 9.0 21.0 0.00 0.00 0.00 28 1013.1
20260507203535 69 318 6.0 16.0 0.00 0.00 0.00 27 1013.1
20260507203116 69 280 8.0 16.0 0.00 0.00 0.00 28 1013.2
20260507202537 69 292 5.0 16.0 0.00 0.00 0.00 29 1013.3
20260507202036 69 316 7.0 18.0 0.00 0.00 0.00 27 1013.5
20260507201552 69 322 7.0 18.0 0.00 0.00 0.00 28 1013.6
20260507201039 69 272 7.0 23.0 0.00 0.00 0.00 27 1013.5
20260507200533 69 274 11.0 23.0 0.00 0.00 0.00 27 1013.7
20260507200046 69 266 8.0 19.0 0.00 0.00 0.00 28 1013.6
20260507195542 69 310 9.0 19.0 0.00 0.00 0.00 27 1013.6
20260507195037 69 231 6.0 15.0 0.00 0.00 0.00 28 1013.7
20260507194600 69 305 5.0 14.0 0.00 0.00 0.00 28 1013.8
20260507194036 69 282 4.0 14.0 0.00 0.00 0.00 28 1013.9
20260507193536 69 298 6.0 14.0 0.00 0.00 0.00 31 1013.8
20260507193052 68 274 8.0 14.0 0.00 0.00 0.00 26 1013.8
20260507192534 69 318 3.0 14.0 0.00 0.00 0.00 28 1013.9